sat.trackr.live / text

‹ back to catalog

STARLINK-2611

NORAD 48364 · 2021-038M

PAYLOAD ACTIVE UNKNOWN

§ Identity

Operator
Country
US
Launch date
2021-05-04
Launch site
AFETR
Launch vehicle
Mass (kg)
RCS (m²)

Purposes: comms

External: N2YO · Heavens-Above · Gunter

§ Orbital elements

Epoch: 2026-05-25T00:27:51.831360Z

Period
94.01 min
Inclination
53.1600°
Eccentricity
0.0001225
Mean motion
15.31705350 rev/d
Perigee alt
469.9 km
Apogee alt
471.6 km
Semi-major
6,848.9 km
B*
3.4964e-5
RAAN
352.7895°
Arg perigee
86.5435°
Mean anomaly
273.5706°
Rev number
27,892

§ Raw data

STARLINK-26111 48364U 21038M   26145.01934990  .00000720  00000+0  34964-4 0  99902 48364  53.1600 352.7895 0001225  86.5435 273.5706 15.31705350278920

JSON: /api/v1/satellites/48364 · /tle

For live sub-satellite position, see the globe view (requires WebGL).

§ Visibility from observer

Set your observer location to see the next 7 days of passes ≥ 10°. The values pass through the URL so the page stays shareable.

No JS? Fill the form by hand. The geolocation button needs JavaScript.